SCP
0 0 0 0 0 0 0 0 0 0 0 0 0 0 0 0 0 0 0 0 0 0
0 0 0 0 0 0 0 0 0 0 0 0 0 0 0 0 0 0 0 0 0 0
0 0 0 0 0 0 0 0 0 0 0 0 0 0 0 0 0 0 0 0 0 0
0 0 0 0 0 0 0 0 0 0 0 0 0 0 0 0 0 0 0 0 0 0
0 0 0 0 0 0 0 0 0 0 0 0 0 0 0 0 0 0 0 0 0 0
0 0 0 0 0 0 0 0 0 0 0 0 0 0 0 0 0 0 0 0 0 0
0 0 0 0 0 0 0 0 0 0 0 0 0 0 0 0 0 0 0 0 0 0
0 0 0 0 0 0 0 0 0 0 0 0 0 0 0 0 0 0 0 0 0 0
0 0 0 0 0 0 0 0 0 0 0 0 0 0 0 0 0 0 0 0 0 0
0 0 0 0 0 0 0 0 0 0 0 0 0 0 0 0 0 0 0 0 0 0
0 0 0 0 0 0 0 0 0 0 0 0 0 0 0 0 0 0 0 0 0 0
0 0 0 0 0 0 0 0 0 0 0 0 0 0 0 0 0 0 0 0 0 0
0 0 0 0 0 0 0 0 0 0 0 0 0 0 0 0 0 0 0 0 0 0
0 0 0 0 0 0 0 0 0 0 0 0 0 0 0 0 0 0 0 0 0 0
Wind_Speed_500mb
63 62 62 58 47 48 52 50 46 46 45 45 45 47 50 51 56 49 48 46 46 42
67 64 62 59 48 48 49 47 43 43 43 42 43 48 44 48 50 45 41 40 43 41
61 62 62 56 51 53 48 47 48 42 38 42 45 46 46 50 40 45 45 49 41 41
51 48 46 43 42 42 44 48 47 47 47 49 47 45 48 45 41 39 40 39 36 38
35 33 34 39 37 36 37 37 39 40 42 45 44 42 44 44 39 37 37 37 37 34
31 31 29 29 30 30 30 31 31 31 31 30 24 23 26 29 30 32 25 24 27 19
27 27 28 28 27 26 26 25 24 24 22 21 19 18 21 23 28 28 29 23 20 20
27 24 25 25 24 23 22 22 22 21 23 21 21 21 21 27 27 24 21 21 20 19
26 26 25 26 26 25 22 20 19 22 21 20 20 20 19 19 20 23 22 19 21 23
29 28 27 27 26 24 21 20 17 18 17 19 20 21 23 23 24 23 22 22 22 20
28 27 25 25 24 23 22 22 22 22 21 21 22 22 23 26 26 25 23 23 22 21
31 29 27 27 27 26 25 23 23 23 23 23 23 23 23 25 25 24 24 25 24 22
33 30 28 27 26 26 25 25 25 25 24 24 24 24 25 26 27 28 29 29 28 24
33 32 30 29 27 26 25 26 24 25 24 25 24 25 27 29 31 32 35 35 33 30
Wind_Direction_500mb
238 238 241 244 240 238 240 245 252 250 248 257 256 257 259 263 263 258 261 264 264 259
233 237 237 239 235 237 242 246 245 248 253 258 261 261 262 265 268 263 261 266 258 259
236 235 237 243 237 241 243 245 253 250 246 247 249 253 255 262 261 263 265 257 254 262
233 234 235 239 244 244 245 247 248 250 253 254 261 255 253 257 258 264 255 252 259 269
221 223 229 234 242 247 249 251 253 255 253 253 255 253 255 255 249 250 261 263 263 283
219 224 230 235 238 243 247 249 253 251 251 252 245 249 255 253 251 245 241 269 285 265
218 228 236 242 245 251 254 254 251 248 242 242 243 247 243 248 251 257 262 254 228 252
220 228 237 243 247 250 250 247 249 237 241 236 237 244 244 251 244 227 210 234 246 262
227 233 237 242 243 241 239 240 238 240 237 226 233 233 235 227 228 233 233 240 242 240
232 233 235 237 239 241 245 250 248 244 240 238 233 234 237 244 247 245 243 240 235 224
241 241 242 245 246 249 247 246 245 241 239 234 237 237 240 245 246 241 234 227 220 215
242 238 238 239 239 239 241 242 240 237 239 240 242 242 238 241 241 235 231 222 221 221
230 231 231 234 236 239 244 245 242 244 246 248 243 240 240 241 241 237 232 230 227 243
223 223 226 227 230 235 241 249 253 256 251 251 254 254 250 249 250 246 238 235 240 256
Wind_Speed_850mb
63 62 62 58 47 48 52 50 46 46 45 45 45 47 50 51 56 49 48 46 46 42
67 64 62 59 48 48 49 47 43 43 43 42 43 48 44 48 50 45 41 40 43 41
61 62 62 56 51 53 48 47 48 42 38 42 45 46 46 50 40 45 45 49 41 41
51 48 46 43 42 42 44 48 47 47 47 49 47 45 48 45 41 39 40 39 36 38
35 33 34 39 37 36 37 37 39 40 42 45 44 42 44 44 39 37 37 37 37 34
31 31 29 29 30 30 30 31 31 31 31 30 24 23 26 29 30 32 25 24 27 19
27 27 28 28 27 26 26 25 24 24 22 21 19 18 21 23 28 28 29 23 20 20
27 24 25 25 24 23 22 22 22 21 23 21 21 21 21 27 27 24 21 21 20 19
26 26 25 26 26 25 22 20 19 22 21 20 20 20 19 19 20 23 22 19 21 23
29 28 27 27 26 24 21 20 17 18 17 19 20 21 23 23 24 23 22 22 22 20
28 27 25 25 24 23 22 22 22 22 21 21 22 22 23 26 26 25 23 23 22 21
31 29 27 27 27 26 25 23 23 23 23 23 23 23 23 25 25 24 24 25 24 22
33 30 28 27 26 26 25 25 25 25 24 24 24 24 25 26 27 28 29 29 28 24
33 32 30 29 27 26 25 26 24 25 24 25 24 25 27 29 31 32 35 35 33 30
Wind_Direction_850mb
238 238 241 244 240 238 240 245 252 250 248 257 256 257 259 263 263 258 261 264 264 259
233 237 237 239 235 237 242 246 245 248 253 258 261 261 262 265 268 263 261 266 258 259
236 235 237 243 237 241 243 245 253 250 246 247 249 253 255 262 261 263 265 257 254 262
233 234 235 239 244 244 245 247 248 250 253 254 261 255 253 257 258 264 255 252 259 269
221 223 229 234 242 247 249 251 253 255 253 253 255 253 255 255 249 250 261 263 263 283
219 224 230 235 238 243 247 249 253 251 251 252 245 249 255 253 251 245 241 269 285 265
218 228 236 242 245 251 254 254 251 248 242 242 243 247 243 248 251 257 262 254 228 252
220 228 237 243 247 250 250 247 249 237 241 236 237 244 244 251 244 227 210 234 246 262
227 233 237 242 243 241 239 240 238 240 237 226 233 233 235 227 228 233 233 240 242 240
232 233 235 237 239 241 245 250 248 244 240 238 233 234 237 244 247 245 243 240 235 224
241 241 242 245 246 249 247 246 245 241 239 234 237 237 240 245 246 241 234 227 220 215
242 238 238 239 239 239 241 242 240 237 239 240 242 242 238 241 241 235 231 222 221 221
230 231 231 234 236 239 244 245 242 244 246 248 243 240 240 241 241 237 232 230 227 243
223 223 226 227 230 235 241 249 253 256 251 251 254 254 250 249 250 246 238 235 240 256